TimeEDT,TemperatureF,Dew PointF,Humidity,Sea Level PressureIn,VisibilityMPH,Wind Direction,Wind SpeedMPH,Gust SpeedMPH,PrecipitationIn,Events,Conditions,WindDirDegrees,DateUTC
12:53 AM,78.1,75.0,90,30.11,10.0,NNE,4.6,-,N/A,,Clear,20,2013-07-31 04:53:00
1:53 AM,77.0,75.0,94,30.09,10.0,ENE,4.6,-,N/A,,Clear,60,2013-07-31 05:53:00
2:53 AM,75.9,75.0,97,30.06,8.0,East,3.5,-,N/A,,Clear,80,2013-07-31 06:53:00
3:53 AM,75.9,75.0,97,30.05,7.0,ENE,3.5,-,N/A,,Clear,70,2013-07-31 07:53:00
4:53 AM,75.9,75.0,97,30.04,7.0,ENE,4.6,-,N/A,,Clear,70,2013-07-31 08:53:00
5:53 AM,75.9,75.0,97,30.06,7.0,ENE,3.5,-,N/A,,Clear,70,2013-07-31 09:53:00
6:53 AM,75.0,75.0,100,30.07,7.0,NE,3.5,-,N/A,,Clear,40,2013-07-31 10:53:00
7:53 AM,78.1,75.9,93,30.09,7.0,NNE,4.6,-,N/A,,Clear,30,2013-07-31 11:53:00
8:53 AM,82.0,78.1,88,30.10,7.0,NE,6.9,-,N/A,,Clear,50,2013-07-31 12:53:00
9:53 AM,84.9,78.1,80,30.10,8.0,NE,8.1,-,N/A,,Partly Cloudy,50,2013-07-31 13:53:00
10:53 AM,87.1,77.0,72,30.11,9.0,ENE,9.2,-,N/A,,Scattered Clouds,60,2013-07-31 14:53:00
11:53 AM,89.1,75.9,65,30.11,10.0,ENE,6.9,-,N/A,,Scattered Clouds,60,2013-07-31 15:53:00
12:53 PM,91.0,75.0,59,30.09,10.0,ESE,5.8,-,N/A,,Clear,110,2013-07-31 16:53:00
1:53 PM,86.0,75.9,72,30.06,10.0,SW,11.5,-,N/A,,Partly Cloudy,220,2013-07-31 17:53:00
2:21 PM,87.8,77.0,70,30.07,10.0,SW,10.4,-,N/A,Thunderstorm,Partly Cloudy,220,2013-07-31 18:21:00
2:47 PM,82.4,69.8,66,30.07,10.0,SE,16.1,-,N/A,,Partly Cloudy,130,2013-07-31 18:47:00
2:53 PM,82.0,70.0,67,30.06,10.0,SE,10.4,-,N/A,Thunderstorm,Thunderstorm,130,2013-07-31 18:53:00
3:49 PM,75.2,73.4,94,30.04,7.0,East,6.9,-,0.01,Rain,Light Rain,100,2013-07-31 19:49:00
3:53 PM,75.9,72.0,87,30.03,9.0,East,4.6,-,0.01,Rain,Light Rain,90,2013-07-31 19:53:00
4:53 PM,82.0,72.0,71,30.01,10.0,Calm,Calm,-,0.00,,Scattered Clouds,0,2013-07-31 20:53:00
5:53 PM,84.0,75.9,76,30.00,10.0,Calm,Calm,-,N/A,,Partly Cloudy,0,2013-07-31 21:53:00
6:53 PM,82.9,75.0,77,30.00,10.0,NE,3.5,-,N/A,,Partly Cloudy,40,2013-07-31 22:53:00
7:53 PM,82.0,75.9,82,30.01,10.0,NNE,3.5,-,N/A,,Partly Cloudy,30,2013-07-31 23:53:00
8:53 PM,81.0,75.0,82,30.03,10.0,NNE,4.6,-,N/A,,Partly Cloudy,30,2013-08-01 00:53:00
9:53 PM,80.1,77.0,90,30.05,10.0,Calm,Calm,-,N/A,,Mostly Cloudy,0,2013-08-01 01:53:00
10:53 PM,79.0,75.0,88,30.06,10.0,Calm,Calm,-,N/A,,Scattered Clouds,0,2013-08-01 02:53:00
11:53 PM,78.1,75.9,93,30.05,10.0,ENE,4.6,-,N/A,,Clear,70,2013-08-01 03:53:00